sat.trackr.live / text

‹ back to catalog

STARLINK-34567

NORAD 64795 · 2025-150F

PAYLOAD ACTIVE UNKNOWN

§ Identity

Operator
Country
US
Launch date
2025-07-16
Launch site
AFWTR
Launch vehicle
Mass (kg)
RCS (m²)

Purposes: comms

External: N2YO · Heavens-Above · Gunter

§ Orbital elements

Epoch: 2026-09-20T13:55:36.814944Z

Period
96.11 min
Inclination
70.0031°
Eccentricity
0.0003250
Mean motion
14.98336025 rev/d
Perigee alt
569.8 km
Apogee alt
574.3 km
Semi-major
6,950.2 km
B*
3.2488e-4
RAAN
2.9015°
Arg perigee
273.6636°
Mean anomaly
86.4151°
Rev number
6,571

§ Raw data

STARLINK-345671 64795U 25150F   26263.58028721  .00003786  00000+0  32488-3 0  99972 64795  70.0031   2.9015 0003250 273.6636  86.4151 14.98336025 65719

JSON: /api/v1/satellites/64795 · /tle

For live sub-satellite position, see the globe view (requires WebGL).

§ Visibility from observer

Set your observer location to see the next 7 days of passes ≥ 10°. The values pass through the URL so the page stays shareable.

No JS? Fill the form by hand. The geolocation button needs JavaScript.